Location: Mainz-Finthen
(49.9906°N, 8.1713°E)
Time: 17:28:25
(UTC+00:00)

AO-73 - Visible Passes

Search period start: 07 December 2021 00:00
Search period end: 17 December 2021 00:00
Orbit: 581 x 660 km, 97.6° (Epoch: 06 December)

Date Brightness Start Highest point End Pass type
(mag) Time Alt. Az. Time Alt. Az. Time Alt. Az.
07 Dec ? 04:08:42 10° NNE 04:10:07 20° NNE 04:10:07 20° NNE visible
07 Dec ? 05:46:14 10° NNW 05:47:18 13° NW 05:47:18 13° NW visible
08 Dec ? 04:26:18 10° N 04:27:42 20° N 04:27:42 20° N visible
09 Dec ? 04:43:59 10° N 04:45:17 18° N 04:45:17 18° N visible
10 Dec ? 03:25:30 10° NNE 03:25:41 11° NNE 03:25:41 11° NNE visible
10 Dec ? 05:01:44 10° N 05:02:52 16° NNW 05:02:52 16° NNW visible
10 Dec ? 16:01:21 10° SW 16:04:55 24° W 16:08:33 10° NW visible
11 Dec ? 03:42:53 10° NNE 03:43:17 12° NNE 03:43:17 12° NNE visible
11 Dec ? 05:19:35 10° N 05:20:28 14° NNW 05:20:28 14° NNW visible
11 Dec ? 16:19:48 10° SW 16:22:39 17° W 16:25:33 10° NW visible
12 Dec ? 04:00:21 10° NNE 04:00:53 13° NNE 04:00:53 13° NNE visible
12 Dec ? 05:37:36 10° NNW 05:38:04 12° NNW 05:38:04 12° NNW visible
12 Dec ? 16:38:59 10° WSW 16:40:27 11° W 16:41:56 10° WNW visible
13 Dec ? 04:17:55 10° N 04:18:30 14° N 04:18:30 14° N visible
14 Dec ? 04:35:33 10° N 04:36:07 13° N 04:36:07 13° N visible
15 Dec ? 04:53:16 10° N 04:53:44 13° N 04:53:44 13° N visible
16 Dec ? 05:11:04 10° N 05:11:21 11° N 05:11:21 11° N visible
16 Dec ? 16:10:53 10° SW 16:14:09 20° W 16:17:29 10° NW visible
